Ana Sayfa
METAR-TAF:

METAR-TAF

Havaalanları :

Caldwell, New Jersey, Amerika Birleşik Devletleri

Enlem: 40-52-35N, Boylam: 074-16-59W, yükseklik: 52 m

Güncel hava durumu gözlemi

Rapor saat 20:53 UTC de 1 saat ve 6 dakika önce yapıldı.
Rüzgar değişken yönden 5 kt
Sıcaklık 4°C
Nem 18%
Basınç 1031 hPa
Görüş mesafesi: 16.1 km
Açık gökyüzü

METAR: KCDW 162053Z VRB05KT 10SM CLR 04/M18 A3044 RMK AO2 SLP314 T00441178 55004

Saat: 16:59 (21:59 UTC)


TAF: eksik

4.000'den fazla havaalanı için hava durumu gözlemleri ve tahminleri (METAR ve TAF raporları).

Kullanılabilir istasyonlar harita üzerinde sarı ve kırmızı noktalarla gösterilir.

İstasyonun adını görmek için fareyi noktanın üzerinde gezdirin.

Sonrasında hava gözlem ve tahminlerini görmek için tıklayın.

Haritayı değiştirmek için: yaklaştırmak için siyah artı işaretli yeşil düğmeye ve uzaklaştırmak için de eksi işaretli düğmeye hızla tıklayın; bitişik haritalar için yeşil okları kullanın.


METAR-TAF: